[[{"header":{"parameterUnit":"m.s-1","parameterCategory":1,"la1":30.2991,"la2":30.254,"lo1":-89.0895,"lo2":-89.0444,"dy":0.0017,"dx":0.0017,"nx":28,"ny":28,"refTime":"2023-09-08T21:00:00:Z","depth":0,"parameterNumber":2,"parameterNumberName":"U-component_of_WINDS"},"data":[0,0,0,0,0,0,0,0,0,0,0,0,0,0,0,0,0,0,0,0,0,0,0,0,0,0,0,0,0,0,0,0,0,0,0,0,0,0,0,0,0,0,0,0,0,0,0,0,0,0,0,0,0,0,0,0,0,0,-1.3371,-1.3371,0,-1.3368,-1.3368,-1.3367,-1.3259,-1.3257,-1.3254,-1.3251,-1.3252,-1.3255,-1.3258,0,0,0,0,0,0,0,0,0,0,0,0,0,-1.3286,-1.3288,-1.3371,-1.3371,-1.3371,-1.3368,-1.3368,-1.3367,-1.326,-1.3256,-1.3253,-1.325,-1.3252,-1.3255,-1.3258,0,0,0,0,0,0,0,0,0,0,0,0,0,-1.3307,-1.3289,-1.3371,-1.3316,-1.3311,-1.3368,-1.3368,-1.3367,-1.3261,-1.3256,-1.3252,-1.3248,-1.3251,-1.3254,-1.3258,-1.3368,0,0,-1.3271,-1.3272,0,0,0,0,0,0,0,0,-1.3306,-1.3311,-1.3324,-1.332,-1.3315,-1.3309,-1.3338,-1.3368,-1.3262,-1.328,-1.3251,-1.3246,-1.3275,-1.3277,-1.3286,-1.3368,-1.3368,-1.3271,-1.3273,-1.3275,-1.3276,0,0,0,0,0,0,0,-1.3305,-1.331,-1.3369,-1.3325,-1.3319,-1.3293,-1.3291,-1.3343,-1.3302,-1.3278,-1.327,-1.3271,-1.3272,-1.3282,-1.3285,-1.3368,-1.3271,-1.3274,-1.3277,-1.3278,-1.3538,-1.3542,0,0,0,0,0,0,-1.331,-1.331,-1.337,-1.3369,-1.33,-1.3298,-1.3296,-1.3316,-1.3301,-1.3294,-1.3275,-1.3266,-1.3277,-1.328,-1.3285,-1.3411,-1.3275,-1.3279,-1.3281,-1.3533,-1.3539,-1.3544,0,0,0,0,0,0,-1.3309,-1.3317,-1.337,-1.3337,-1.3342,-1.3304,-1.3327,-1.3318,-1.3328,-1.3298,-1.329,-1.3293,-1.3274,-1.3279,-1.3347,-1.3409,-1.3281,-1.3284,-1.3528,-1.3535,-1.3541,-1.3665,0,0,0,0,0,0,-1.3307,-1.3317,-1.3358,-1.3339,-1.3344,-1.3432,-1.333,-1.3321,-1.3335,-1.3323,-1.3313,-1.3307,-1.3271,-1.3342,-1.3351,-1.3413,-1.3287,-1.3522,-1.3531,-1.3539,-1.3655,-1.3675,-1.3692,0,0,0,0,0,-1.3304,-1.3394,-1.336,-1.3368,-1.3394,-1.3436,-1.3439,-1.3394,-1.334,-1.3381,-1.3361,-1.3308,-1.3401,-1.335,-1.3359,-1.3423,-1.3518,-1.3529,-1.3538,-1.3647,-1.3671,-1.3692,0,0,0,0,0,0,-1.3423,-1.339,-1.3353,-1.3439,-1.3441,-1.3417,-1.3468,-1.3422,-1.344,-1.3429,-1.3374,-1.3373,-1.345,-1.3443,-1.3387,-1.3527,-1.345,-1.3463,-1.3529,-1.3552,-1.357,-1.3571,-1.3291,0,0,0,0,0,-1.3459,-1.3494,-1.3464,-1.3543,-1.3545,-1.3507,-1.3523,-1.3488,-1.3489,-1.349,-1.3475,-1.3479,-1.3508,-1.353,-1.3556,-1.3653,-1.3649,-1.3702,-1.372,-1.3735,-1.3747,-1.3798,-1.3821,-1.3577,-1.3577,-1.3577,0,0,-1.3534,-1.352,-1.3547,-1.3566,-1.3564,-1.3603,-1.3508,-1.3554,-1.3582,-1.3497,-1.356,-1.355,-1.355,-1.3633,-1.3669,-1.363,-1.3814,-1.3748,-1.3761,-1.3764,-1.3811,-1.3834,-1.3855,-1.3584,-1.3583,-1.3581,0,0,-1.369,-1.3684,-1.3748,-1.3746,-1.3743,-1.3716,-1.3732,-1.3715,-1.3704,-1.3766,-1.3702,-1.3736,-1.3789,-1.3791,-1.38,-1.3955,-1.3906,-1.3965,-1.4062,-1.4112,-1.4131,-1.4148,-1.4204,-1.4224,-1.3977,-1.3977,-1.3977,0,-1.3785,-1.384,-1.3787,-1.3836,-1.3847,-1.3769,-1.3834,-1.3836,-1.3842,-1.3852,-1.3807,-1.387,-1.3865,-1.3947,-1.3985,-1.3994,-1.4011,-1.3967,-1.4133,-1.4149,-1.4164,-1.4216,-1.4237,-1.3984,-1.3983,-1.3983,-1.3982,0,-1.3956,-1.3995,-1.4047,-1.4052,-1.4069,-1.4126,-1.4083,-1.4106,-1.4069,-1.4047,-1.4111,-1.4102,-1.4124,-1.4141,-1.4106,-1.4218,-1.4194,-1.4142,-1.4063,-1.4195,-1.4244,-1.4263,-1.3994,-1.3992,-1.399,-1.3988,0,0,-1.419,-1.4163,-1.4183,-1.4184,-1.4173,-1.4203,-1.4256,-1.4276,-1.4297,-1.4303,-1.4347,-1.4392,-1.4343,-1.4353,-1.4318,-1.4361,-1.4485,-1.4303,-1.4303,-1.4338,-1.4608,-1.4648,-1.4672,-1.4452,-1.4455,-1.4458,-1.4608,0,-1.4341,-1.4429,-1.4383,-1.4478,-1.4513,-1.4438,-1.4485,-1.4484,-1.4464,-1.4492,-1.4471,-1.4504,-1.4436,-1.4442,-1.4481,-1.4462,-1.4539,-1.445,-1.4493,-1.4495,-1.4496,-1.4697,-1.474,-1.4881,-1.4626,-1.463,-1.4632,0,-1.453,-1.4542,-1.464,-1.4621,-1.4634,-1.4677,-1.469,-1.4717,-1.4715,-1.4697,-1.4707,-1.4661,-1.4712,-1.4633,-1.4704,-1.4644,-1.4659,-1.4652,-1.4656,-1.466,-1.4573,-1.4707,-1.4925,-1.4947,-1.4661,-1.4659,-1.4657,0,-1.4692,-1.4732,-1.4795,-1.4798,-1.4778,-1.4809,-1.4803,-1.4795,-1.4809,-1.4822,-1.4831,-1.485,-1.486,-1.4876,-1.4837,-1.4783,-1.4913,-1.4831,-1.4901,-1.4902,-1.4933,-1.4932,-1.5158,-1.4941,-1.4941,-1.4941,-1.494,0,-1.4866,-1.493,-1.4867,-1.4906,-1.4974,-1.492,-1.499,-1.4975,-1.4969,-1.5004,-1.4941,-1.4976,-1.4921,-1.4951,-1.492,-1.4983,-1.4989,-1.4977,-1.4968,-1.4983,-1.4985,-1.4993,-1.4982,-1.4946,-1.4945,-1.4944,-1.4943,0,-1.5059,-1.5019,-1.5083,-1.5058,-1.5052,-1.5104,-1.5082,-1.5118,-1.5093,-1.5139,-1.5147,-1.5108,-1.514,-1.5101,-1.513,-1.5109,-1.5195,-1.5172,-1.5196,-1.5189,-1.5262,-1.5256,-1.5502,-1.5532,-1.5296,-1.5298,-1.53,0,-1.5174,-1.522,-1.5198,-1.5216,-1.5212,-1.5243,-1.5256,-1.5205,-1.5222,-1.5221,-1.5257,-1.5282,-1.53,-1.5354,-1.533,-1.5351,-1.5328,-1.5413,-1.5331,-1.5344,-1.533,-1.5328,-1.5332,-1.543,-1.5433,-1.5435,-1.5437,0,-1.5381,-1.5359,-1.538,-1.5394,-1.5411,-1.5421,-1.5425,-1.5444,-1.539,-1.5412,-1.5443,-1.5456,-1.5484,-1.5511,-1.5525,-1.5519,-1.547,-1.5463,-1.548,-1.5496,-1.5509,-1.5503,-1.5242,-1.5458,-1.5456,-1.5454,-1.5453,-1.5452,-1.5539,-1.5576,-1.5566,-1.5591,-1.5588,-1.5593,-1.5625,-1.5603,-1.5627,-1.5644,-1.5612,-1.5651,-1.5646,-1.5659,-1.5659,-1.5688,-1.5652,-1.5678,-1.5684,-1.5691,-1.5702,-1.5503,-1.5691,-1.569,-1.569,-1.5689,-1.5689,0,-1.5743,-1.5732,-1.5756,-1.5763,-1.5783,-1.5732,-1.5734,-1.5755,-1.5789,-1.5787,-1.5805,-1.584,-1.5864,-1.5841,-1.5861,-1.589,-1.5868,-1.5897,-1.5895,-1.5894,-1.5734,-1.5717,-1.5915,-1.5915,-1.5915,-1.5915,-1.5915,-1.5914,-1.5852,-1.5912,-1.5888,-1.5946,-1.5935,-1.597,-1.5976,-1.5981,-1.5979,-1.6019,-1.6039,-1.6023,-1.6012,-1.6031,-1.6052,-1.6044,-1.6055,-1.6093,-1.6078,-1.5928,-1.5906,-1.5885,-1.5868,-1.6095,-1.6096,-1.6236,-1.6237,-1.6238]},{"header":{"parameterUnit":"m.s-1","parameterCategory":1,"la1":30.2991,"la2":30.254,"lo1":-89.0895,"lo2":-89.0444,"dy":0.0017,"dx":0.0017,"nx":28,"ny":28,"refTime":"2023-09-08T21:00:00:Z","depth":0,"parameterNumber":3,"parameterNumberName":"V-component_of_WINDS"},"data":[0,0,0,0,0,0,0,0,0,0,0,0,0,0,0,0,0,0,0,0,0,0,0,0,0,0,0,0,0,0,0,0,0,0,0,0,0,0,0,0,0,0,0,0,0,0,0,0,0,0,0,0,0,0,0,0,0,0,-3.0916,-3.0917,0,-3.0967,-3.0968,-3.0968,-3.0944,-3.0943,-3.0941,-3.094,-3.0988,-3.0991,-3.0993,0,0,0,0,0,0,0,0,0,0,0,0,0,-3.0793,-3.0795,-3.0916,-3.0917,-3.0917,-3.0967,-3.0968,-3.0968,-3.0944,-3.0943,-3.0941,-3.094,-3.0987,-3.099,-3.0993,0,0,0,0,0,0,0,0,0,0,0,0,0,-3.0845,-3.0796,-3.0916,-3.0911,-3.0911,-3.0967,-3.0968,-3.0968,-3.0944,-3.0943,-3.0941,-3.0939,-3.0986,-3.099,-3.0994,-3.1055,0,0,-3.1005,-3.1007,0,0,0,0,0,0,0,0,-3.0842,-3.085,-3.0911,-3.0912,-3.0912,-3.0947,-3.0942,-3.0997,-3.0945,-3.0932,-3.094,-3.0938,-3.0976,-3.098,-3.0994,-3.1057,-3.1059,-3.1005,-3.1008,-3.1009,-3.101,0,0,0,0,0,0,0,-3.0839,-3.0848,-3.0936,-3.0912,-3.0913,-3.0905,-3.091,-3.0952,-3.0964,-3.0933,-3.0931,-3.0938,-3.0976,-3.099,-3.0995,-3.106,-3.1005,-3.1009,-3.1011,-3.1012,-3.1174,-3.1176,0,0,0,0,0,0,-3.0836,-3.0845,-3.0934,-3.0938,-3.0872,-3.0909,-3.0915,-3.0938,-3.0963,-3.0966,-3.0939,-3.0936,-3.0985,-3.0991,-3.0996,-3.1069,-3.1009,-3.1013,-3.1015,-3.1172,-3.1175,-3.1177,0,0,0,0,0,0,-3.0833,-3.0844,-3.0932,-3.0891,-3.0901,-3.0913,-3.0939,-3.094,-3.0955,-3.0968,-3.097,-3.0953,-3.0984,-3.0991,-3.1041,-3.107,-3.1014,-3.1018,-3.117,-3.1173,-3.1176,-3.1214,0,0,0,0,0,0,-3.083,-3.0844,-3.0868,-3.0892,-3.0904,-3.0977,-3.0941,-3.0942,-3.0962,-3.0958,-3.0981,-3.0983,-3.0983,-3.1035,-3.1044,-3.1074,-3.1021,-3.1167,-3.1171,-3.1175,-3.121,-3.1218,-3.1225,0,0,0,0,0,-3.0826,-3.0876,-3.087,-3.0881,-3.0935,-3.0979,-3.0986,-3.0985,-3.0964,-3.0988,-3.0997,-3.0982,-3.1066,-3.104,-3.105,-3.1082,-3.1165,-3.117,-3.1175,-3.1207,-3.1217,-3.1225,0,0,0,0,0,0,-3.0855,-3.0879,-3.0872,-3.0932,-3.0954,-3.0975,-3.1005,-3.0996,-3.1023,-3.1019,-3.1016,-3.1021,-3.1072,-3.1082,-3.1053,-3.1142,-3.1112,-3.1119,-3.1133,-3.1142,-3.115,-3.1145,-3.1024,0,0,0,0,0,-3.0869,-3.0904,-3.0923,-3.0974,-3.0985,-3.0993,-3.1012,-3.101,-3.1032,-3.1041,-3.1053,-3.1073,-3.1104,-3.1124,-3.1153,-3.1212,-3.1215,-3.1238,-3.1246,-3.1252,-3.1257,-3.1287,-3.1297,-3.1192,-3.1192,-3.1192,0,0,-3.0897,-3.0914,-3.0936,-3.098,-3.0996,-3.1031,-3.1001,-3.1039,-3.1064,-3.1046,-3.1093,-3.1103,-3.1125,-3.1179,-3.1204,-3.1189,-3.1287,-3.1258,-3.1262,-3.1265,-3.1293,-3.1303,-3.1312,-3.1196,-3.1195,-3.1195,0,0,-3.0965,-3.0983,-3.1027,-3.1044,-3.107,-3.1075,-3.1085,-3.1108,-3.1114,-3.1162,-3.1148,-3.1177,-3.123,-3.1246,-3.1261,-3.1335,-3.1322,-3.1345,-3.1382,-3.1412,-3.142,-3.1427,-3.1451,-3.1461,-3.1351,-3.1351,-3.1351,0,-3.0996,-3.1049,-3.105,-3.1089,-3.1108,-3.1094,-3.1137,-3.1153,-3.1187,-3.1199,-3.1183,-3.1248,-3.1263,-3.1319,-3.1337,-3.1351,-3.1361,-3.1341,-3.1419,-3.1426,-3.1433,-3.1456,-3.1465,-3.1353,-3.1353,-3.1353,-3.1352,0,-3.1085,-3.1122,-3.1154,-3.1187,-3.121,-3.1251,-3.1256,-3.1278,-3.1274,-3.128,-3.1328,-3.1345,-3.1376,-3.139,-3.1386,-3.1446,-3.1435,-3.142,-3.1389,-3.1445,-3.1467,-3.1476,-3.1357,-3.1356,-3.1355,-3.1354,0,0,-3.1172,-3.1206,-3.1217,-3.1232,-3.1259,-3.1287,-3.1326,-3.1358,-3.1376,-3.14,-3.1431,-3.1477,-3.1461,-3.1479,-3.1476,-3.1503,-3.1557,-3.1483,-3.1483,-3.1494,-3.1622,-3.1632,-3.1643,-3.155,-3.1552,-3.1553,-3.1619,0,-3.1241,-3.1312,-3.1313,-3.1377,-3.141,-3.1397,-3.1431,-3.1451,-3.1458,-3.1485,-3.1492,-3.1524,-3.1503,-3.1512,-3.1538,-3.1545,-3.1583,-3.1541,-3.1577,-3.1578,-3.157,-3.1654,-3.1666,-3.1727,-3.1628,-3.1629,-3.163,0,-3.133,-3.1358,-3.1425,-3.1447,-3.146,-3.1491,-3.152,-3.1547,-3.1568,-3.1571,-3.159,-3.1584,-3.1622,-3.1592,-3.1644,-3.1615,-3.163,-3.1636,-3.1638,-3.164,-3.1606,-3.1656,-3.1747,-3.1755,-3.1644,-3.1643,-3.1642,0,-3.1385,-3.1438,-3.1485,-3.1498,-3.1525,-3.1546,-3.1558,-3.1578,-3.1596,-3.1621,-3.1632,-3.1661,-3.1676,-3.1697,-3.1698,-3.1677,-3.1749,-3.172,-3.1751,-3.1751,-3.1765,-3.1764,-3.1858,-3.1778,-3.1778,-3.1778,-3.1778,0,-3.146,-3.1501,-3.151,-3.1538,-3.1583,-3.1584,-3.1628,-3.1638,-3.1655,-3.1684,-3.1675,-3.1702,-3.1703,-3.173,-3.1731,-3.1772,-3.1779,-3.1781,-3.178,-3.1781,-3.178,-3.1789,-3.1784,-3.1781,-3.178,-3.178,-3.1779,0,-3.1527,-3.1535,-3.1585,-3.1607,-3.1613,-3.1645,-3.1662,-3.1689,-3.1695,-3.1731,-3.174,-3.1749,-3.178,-3.1784,-3.182,-3.1821,-3.187,-3.1866,-3.1863,-3.1861,-3.1891,-3.1888,-3.1992,-3.2005,-3.1919,-3.192,-3.1921,0,-3.1574,-3.1605,-3.1631,-3.165,-3.1663,-3.1695,-3.1714,-3.1716,-3.1735,-3.1762,-3.1784,-3.1815,-3.1839,-3.189,-3.1898,-3.1925,-3.192,-3.1955,-3.1924,-3.1923,-3.1918,-3.1916,-3.1918,-3.1961,-3.1962,-3.1962,-3.1963,0,-3.1655,-3.1657,-3.1686,-3.1716,-3.1739,-3.1763,-3.1784,-3.18,-3.1805,-3.1827,-3.186,-3.1879,-3.1916,-3.1946,-3.1972,-3.1983,-3.1973,-3.1973,-3.1981,-3.1981,-3.1977,-3.1977,-3.1877,-3.197,-3.1969,-3.1969,-3.1968,-3.1968,-3.1712,-3.1739,-3.1761,-3.1792,-3.1809,-3.183,-3.1855,-3.1865,-3.1893,-3.1924,-3.1923,-3.1958,-3.1977,-3.2012,-3.2024,-3.2051,-3.2039,-3.2051,-3.2054,-3.2056,-3.2058,-3.1975,-3.2056,-3.2055,-3.2055,-3.2055,-3.2055,0,-3.1791,-3.1804,-3.1834,-3.1865,-3.189,-3.188,-3.1904,-3.1924,-3.1956,-3.1975,-3.2,-3.2036,-3.2065,-3.2076,-3.2104,-3.2122,-3.2118,-3.2129,-3.2127,-3.2129,-3.2068,-3.2058,-3.2132,-3.2132,-3.2132,-3.2132,-3.2132,-3.2132,-3.1834,-3.1879,-3.1883,-3.1935,-3.1948,-3.1983,-3.1997,-3.2015,-3.2031,-3.2072,-3.2096,-3.2104,-3.212,-3.2148,-3.2173,-3.2176,-3.2185,-3.2198,-3.2198,-3.2141,-3.2133,-3.2126,-3.2115,-3.22,-3.2201,-3.2256,-3.2256,-3.2257]}]]